Погода в Туране

Россия / Республика Бурятия     51°38′13″N   101°39′49″E
темп.,
°C
ветер,
м/с
пор.,
м/с
влажн.,
%
обл.,
%
осадки,
мм/ч
давл.,
гПа
погр.,
м
9 декабря, чт
чт923:00−12ссв228284 0.1 103016
02:00−11в1298100 0.6 103172
05:00−13св129797 0.3 103347
08:00−13ссв1294100 0.4 1034191
11:00−14вюв1294100 0.4 1033355
14:00−14вюв1292100 1.6 1033344
17:00−15в119892 0.4 103526
20:00−16юз0197100 0.6 103740
10 декабря, пт
пт1023:00−18ссз229288 0.1 104010
02:00−19ссз228182 0.2 104111
05:00−21ссз227868 0.0 104311
08:00−21ссз327538 0.0 104312
11:00−17зсз23666 0.0 1041105
14:00−13зюз2456100 0.0 1036439
17:00−15сз3475100 0.0 103842
20:00−16сз4567100 0.0 1039101
11 декабря, сб
сб1123:00−17сз456982 0.0 104062
02:00−18сз447168 0.0 104150
05:00−19сз43739 0.0 104228
08:00−20ссз32754 0.0 104417
11:00−18ссз11680 0.0 1044100
14:00−14з12654 0.0 1041248
17:00−18ссз32755 0.0 104314
20:00−18ссз326914 0.0 104313
12 декабря, вс
вс1223:00−17сз3271100 0.0 104212
02:00−16сз327632 0.0 103913
05:00−15сз337637 0.0 103523
08:00−13зсз3573100 0.0 103154
11:00−9з3671100 0.0 1026193
14:00−6з4672100 0.0 1020281
17:00−7зсз4671100 0.0 1018103
20:00−8зсз4563100 0.0 101877
13 декабря, пн
пн1323:00−9сз3264100 0.0 101713
02:00−11сз3363100 0.0 101515
05:00−10сз4362100 0.0 101523
08:00−11ссз3367100 0.0 101622
11:00−10с227195 0.0 101743
14:00−12в238868 0.0 1020222
17:00−14всв129996 0.2 102361
20:00−15юв139899 0.6 1025144